Weather in Kazino

Russia / Lipetsk Oblast     52°35′04″N   39°08′31″E
temp.,
°C
wind,
m/s
gust,
m/s
humid.,
%
clouds,
%
prec.,
mm/h
press.,
hPa
HPBL,
m
6 may, thu
thu600:00+8ssw4128219 0.0 1014210
03:00+10ssw51272100 0.0 1014318
06:00+9s51276100 0.0 1014325
09:00+13ssw61264100 0.0 1013675
12:00+15ssw81355100 0.0 10121702
15:00+16ssw81353100 0.0 10111860
18:00+15s71160100 0.0 10101020
21:00+12wsw3681100 0.3 1012188
7 may, fri
fri700:00+9w3795100 2.2 1012505
03:00+9wsw3693100 4.6 1014324
06:00+8wnw259398 0.0 1015194
09:00+12wnw34645 0.0 1016875
12:00+14w33415 0.0 10161719
15:00+15wsw23362 0.0 10161817
18:00+15sse134850 0.0 10151355
21:00+11ese3458100 0.0 101645
8 may, sat
sat800:00+11se4962100 0.0 1015214
03:00+10sse5147898 0.0 1013350
06:00+10se51390100 1.0 1012506
09:00+12sse61291100 3.0 1010602
12:00+12s81389100 1.2 1009784
15:00+13s51286100 1.8 1007649
18:00+12wsw5897100 11.5 1006484
21:00+8wnw51194100 15.5 1009739
9 may, sun
sun900:00+7wnw4886100 2.8 1011589
03:00+7wsw3785100 3.4 1012274
06:00+5wnw4888100 0.0 1013464
09:00+6nw5778100 0.0 1014827
12:00+8nw6870100 0.1 10151299
15:00+7nnw61081100 0.3 1017969
18:00+8nnw61277100 0.1 10181005
21:00+6nw368689 0.1 1020104
10 may, mon
mon1000:00+5nw4108722 0.0 1020208
03:00+4nnw5128781 0.0 1022282
06:00+5nnw71579100 0.0 1023614
09:00+9n9166498 0.0 10221405
12:00+9n101760100 0.0 10221330
15:00+8nne111866100 0.1 1022943
18:00+7nne91774100 0.4 1022571
21:00+8nne81875100 0.6 1022529